Location: Ch�ze
(42.9000°N, 0.0333°W)
Time: 00:12:52
(UTC+00:00)

Lacrosse 5 - Pass Details

Date: 24 January 2021
Orbit: 715 x 724 km, 57.0° (Epoch: 22 February)

Event Time Altitude Azimuth Distance (km) Brightness Sun altitude
Rises 17:26:57 0° 314° (NW) 3,122 5.5 -4.9°
Reaches altitude 10° 17:29:22 10° 317° (NW) 2,200 4.7 -5.3°
Maximum altitude 17:34:24 66° 40° (NE) 783 1.9 -6.2°
Drops below altitude 10° 17:39:25 10° 123° (ESE) 2,191 4.0 -7.0°
Sets 17:41:48 0° 126° (SE) 3,109 4.8 -7.5°
